GFSNIL_prec_cloud_006.txt.gz
Cloud_Cover
0 0 0 0 0 0 0 0 0 0 0 0 0 0 0 0 0 0 0 0 0 0
0 0 0 0 0 0 0 0 0 0 0 0 0 0 0 0 0 0 0 0 0 0
0 0 0 0 0 0 0 0 0 0 0 0 0 0 0 0 0 0 0 0 1 5
0 0 0 0 0 0 0 0 0 0 2 0 0 0 0 0 0 0 0 4 5 5
0 0 0 0 0 0 0 0 0 1 5 0 0 0 0 0 0 0 0 2 5 5
0 0 0 0 0 0 0 0 0 4 3 0 0 0 0 0 0 0 0 5 5 5
0 0 0 0 0 0 0 0 0 5 0 0 0 0 0 0 0 5 5 5 5 5
0 0 0 0 0 0 0 0 5 1 0 0 0 0 0 2 5 5 5 5 5 5
0 0 0 0 0 0 0 0 0 0 0 0 0 0 0 5 5 5 94 16 37 81
0 0 2 3 0 5 4 0 0 0 0 0 0 0 5 8 5 55 18 13 36 5
0 1 5 4 5 2 3 0 0 0 0 0 0 0 2 5 5 5 0 1 3 5
3 5 5 5 5 5 5 2 0 0 0 0 0 0 0 5 5 4 5 6 5 5
5 5 5 5 5 5 5 0 0 3 2 0 0 0 0 5 5 5 5 5 20 5
5 5 5 5 4 5 1 4 5 5 0 0 0 4 5 5 87 100 85 100 100 39

GFSNIL_prec_cloud_009.txt.gz
Cloud_Cover
0 0 0 0 0 0 0 0 0 0 0 0 0 0 0 0 0 0 0 0 0 0
0 0 0 0 0 0 0 0 0 0 0 0 0 0 0 0 0 0 0 0 0 0
0 0 0 0 0 0 0 0 0 0 0 0 0 0 0 0 0 0 0 0 0 0
0 0 0 0 0 0 0 0 0 0 0 0 0 0 0 0 0 0 0 0 0 0
0 0 0 0 0 0 0 0 0 0 0 0 0 0 0 0 0 0 0 0 0 1
0 0 0 0 0 0 0 0 0 0 0 0 0 0 0 0 0 0 0 0 5 5
0 0 0 0 0 0 0 0 0 0 0 0 0 0 0 0 0 0 0 5 5 5
0 0 0 0 0 0 0 0 0 0 0 0 0 0 0 0 0 5 5 5 5 8
0 0 0 0 0 0 0 0 0 0 2 5 1 0 0 0 5 8 5 6 5 4
0 0 0 0 0 0 0 0 0 4 5 0 0 0 0 5 5 5 5 4 0 0
0 0 0 0 0 0 0 0 5 5 0 0 0 0 0 2 3 0 0 0 2 2
0 0 0 5 5 0 0 5 5 2 0 0 5 0 0 0 4 5 5 5 5 5
1 1 5 5 5 5 5 5 5 5 5 5 5 0 0 1 5 5 48 100 78 100
5 5 5 5 5 5 16 82 5 5 45 5 0 0 0 5 5 5 5 90 92 100

GFSNIL_prec_cloud_012.txt.gz
Cloud_Cover
0 0 0 0 0 0 0 0 0 0 0 0 0 0 0 0 0 0 0 0 0 0
0 0 0 0 0 0 0 0 0 0 0 0 0 0 0 0 0 0 0 0 0 0
0 0 0 0 0 0 0 0 0 0 0 0 0 0 0 0 0 0 0 0 0 0
0 0 0 0 0 0 0 0 0 0 0 0 0 0 0 0 0 0 0 0 0 0
0 0 0 0 0 0 0 0 0 0 0 0 0 0 0 0 0 0 0 0 0 0
0 0 0 0 0 0 0 0 0 0 0 0 0 0 0 0 0 0 0 0 0 4
0 0 0 0 0 0 0 0 0 0 0 0 0 0 0 0 0 0 0 2 5 5
5 0 0 0 0 0 0 0 0 0 0 0 0 0 0 0 0 0 5 5 5 5
5 5 0 0 0 0 0 0 0 0 0 0 0 0 4 0 0 5 5 5 5 3
8 5 0 0 0 0 0 0 0 0 0 0 0 2 1 0 2 5 2 0 2 0
38 24 5 0 2 4 0 0 5 5 2 0 0 4 2 4 5 1 0 0 1 5
99 16 5 5 5 5 1 5 5 5 5 5 5 5 5 5 4 0 0 0 5 13
58 5 5 9 5 5 5 5 5 15 14 5 5 5 5 5 5 5 5 0 4 32
100 14 5 5 70 24 25 5 14 80 68 5 22 5 5 75 33 16 66 5 5 27

GFSNIL_prec_cloud_015.txt.gz
Cloud_Cover
0 0 0 0 0 0 0 0 0 0 0 0 0 0 0 0 0 0 0 0 0 0
0 0 0 0 0 0 0 0 0 0 0 0 0 0 0 0 0 0 0 0 0 0
0 0 0 0 0 0 0 0 0 0 0 0 0 0 0 0 0 0 0 0 0 0
0 0 0 0 0 0 0 0 0 0 0 0 0 0 0 0 0 0 0 0 0 0
0 0 0 0 0 0 0 0 0 0 0 0 0 0 0 0 0 0 0 0 0 0
0 0 0 0 0 0 0 0 0 0 0 0 0 0 0 0 0 0 0 0 0 0
0 0 0 0 0 0 0 0 0 0 0 0 0 0 0 0 0 0 0 0 0 0
0 0 5 0 0 0 0 0 0 0 0 0 0 0 0 0 0 0 0 0 0 0
1 4 3 0 2 0 0 0 0 0 0 0 0 0 0 0 0 0 0 2 4 2
58 0 0 4 5 5 1 0 0 0 0 2 3 5 0 0 0 3 5 0 0 5
100 19 1 0 5 5 92 18 5 5 5 5 5 5 5 5 5 5 5 5 5 5
100 70 5 5 5 5 5 78 99 31 93 6 5 5 5 5 9 9 5 5 5 5
100 99 18 5 22 5 5 19 100 96 43 5 5 5 5 16 53 32 5 5 5 1
100 100 66 78 68 31 23 98 12 5 7 5 5 5 5 12 19 97 35 5 4 0

GFSNIL_prec_cloud_021.txt.gz
Cloud_Cover
0 0 0 0 0 0 0 0 0 0 0 0 0 0 0 0 0 0 0 0 0 0
0 0 0 0 0 0 0 0 0 0 0 0 0 0 0 0 0 0 0 0 0 0
0 0 0 0 0 0 0 0 0 0 0 0 0 0 0 0 0 0 0 0 0 0
0 0 0 0 0 0 0 0 0 0 0 0 0 0 0 0 0 0 0 0 0 0
5 0 0 0 0 0 0 0 0 0 0 0 0 0 0 0 0 0 0 0 0 0
100 7 0 0 0 0 0 0 0 0 0 0 0 0 0 0 0 0 0 0 0 0
100 80 16 1 0 0 0 0 0 0 0 0 0 0 0 0 0 0 0 0 0 0
100 100 100 39 1 0 0 0 0 0 0 0 0 0 0 0 0 0 0 0 0 0
100 100 100 100 9 2 0 0 0 0 0 0 0 0 0 0 0 0 0 0 0 0
100 100 100 100 41 100 42 5 3 1 0 0 0 0 0 0 0 0 0 0 0 0
100 100 100 100 100 91 100 99 51 29 5 5 2 0 0 0 0 0 0 3 0 0
100 100 100 100 100 39 100 100 88 99 18 36 5 3 0 0 0 0 2 5 5 0
100 100 100 100 100 100 100 100 100 100 100 30 7 11 4 5 5 2 2 5 5 5
100 100 100 100 100 100 100 100 100 99 90 84 94 100 73 7 5 5 5 5 5 5

GFSNIL_prec_cloud_024.txt.gz
Cloud_Cover
0 0 0 0 0 0 2 59 6 5 5 5 3 1 0 0 0 0 0 0 0 0
0 0 0 0 0 0 0 0 0 4 5 5 0 0 0 0 0 0 0 0 0 0
6 5 1 0 0 0 0 0 0 0 0 0 0 0 0 0 0 0 0 0 0 0
5 100 98 53 0 2 3 0 70 30 0 0 0 0 0 0 0 0 0 0 0 0
97 100 100 100 85 32 98 14 100 100 24 0 0 0 0 0 0 0 0 0 0 0
5 100 100 100 100 95 77 100 100 100 56 0 0 0 0 0 0 0 0 0 0 0
5 42 100 100 100 100 100 100 100 100 70 0 0 0 0 0 0 0 0 0 0 0
19 7 100 100 100 100 100 100 100 100 93 0 0 0 0 0 0 0 0 0 0 0
51 100 100 100 100 100 100 100 100 100 91 2 0 0 0 0 0 0 0 0 0 0
99 100 100 100 100 100 100 100 100 100 85 4 0 0 0 1 0 0 0 0 0 0
100 100 100 100 100 100 100 100 100 100 100 15 4 5 5 5 0 0 0 0 0 0
100 100 100 100 100 100 100 100 100 100 100 99 75 88 26 5 5 5 0 0 0 2
100 100 100 100 100 100 100 100 100 100 100 100 100 100 73 77 5 5 0 5 5 1
100 100 100 100 100 100 100 100 100 100 100 100 100 100 100 82 82 8 17 9 31 5

GFSNIL_prec_cloud_027.txt.gz
Cloud_Cover
0 0 0 0 0 0 0 0 36 77 68 4 0 5 5 5 14 71 17 5 8 7
0 0 0 0 0 0 0 0 0 46 100 66 2 0 0 1 4 9 5 5 5 0
0 0 0 0 0 0 0 0 0 0 84 100 60 0 0 0 0 1 0 0 0 0
0 0 0 0 0 0 1 30 38 5 94 100 97 27 0 0 0 0 0 0 0 0
0 0 0 0 0 0 72 57 100 89 100 100 100 98 9 0 0 0 0 0 0 0
0 0 3 0 0 0 7 5 5 99 100 100 100 100 98 6 3 0 0 0 0 0
0 0 15 4 2 30 6 22 32 100 100 100 88 100 100 36 1 0 0 0 0 0
0 0 2 1 20 95 99 94 100 100 100 100 100 100 100 7 0 0 0 0 0 0
3 0 2 71 100 99 100 100 100 100 100 100 100 100 100 4 0 0 0 0 0 0
4 0 3 100 99 32 100 100 100 100 100 100 100 100 100 7 1 0 0 0 0 0
1 1 71 98 94 100 100 100 100 100 100 100 100 100 100 100 29 0 0 0 0 0
5 4 6 100 100 100 100 100 100 100 100 100 100 100 100 100 98 0 0 0 0 0
0 5 47 100 100 100 100 100 100 100 100 100 100 100 100 100 100 9 4 5 5 0
4 28 94 100 100 100 100 100 100 100 100 100 100 100 100 100 100 98 52 100 6 14

GFSNIL_prec_cloud_030.txt.gz
Cloud_Cover
0 0 0 0 0 0 0 0 0 0 0 0 0 75 100 100 82 0 0 19 48 61
0 0 0 0 0 0 0 0 0 0 0 0 0 0 98 100 100 3 0 0 2 8
0 0 0 0 0 0 0 0 0 0 3 0 0 0 72 100 100 81 0 0 0 0
0 0 0 0 0 0 0 0 0 0 14 7 2 64 99 100 100 100 2 0 0 0
0 0 0 0 0 0 0 0 0 0 1 77 5 79 100 96 100 100 14 0 0 0
0 0 0 0 0 0 0 0 0 5 1 0 83 83 92 100 100 100 55 0 0 0
0 0 0 0 0 0 0 0 3 5 4 0 0 77 100 99 100 100 28 60 0 0
0 0 0 0 0 0 0 5 6 17 5 2 4 10 98 87 100 100 98 90 0 0
5 5 5 0 0 3 4 24 55 90 5 5 92 8 100 35 92 91 100 95 0 0
5 16 0 0 5 4 2 21 93 79 4 58 61 66 100 100 100 100 100 95 30 0
0 5 5 4 0 0 5 82 95 9 17 23 100 100 100 100 100 100 100 100 95 4
1 5 5 5 0 5 46 100 80 22 98 100 100 100 100 100 100 100 100 100 98 5
5 36 72 5 2 5 91 100 33 100 100 100 100 100 100 100 100 100 100 78 21 70
5 78 69 5 5 26 100 99 100 100 100 100 100 100 100 100 100 100 100 98 94 86

GFSNIL_prec_cloud_036.txt.gz
Cloud_Cover
0 0 0 0 0 0 0 0 0 0 0 0 0 3 17 30 3 5 1 61 12 100
0 0 0 0 0 0 0 0 0 0 0 0 0 0 0 0 0 5 5 1 7 68
0 0 0 0 0 0 0 0 0 0 0 0 0 0 0 0 0 0 0 5 5 11
0 0 0 0 0 0 0 0 0 0 0 0 0 0 0 0 0 0 0 0 5 5
0 0 0 0 0 0 0 0 0 0 0 0 0 0 0 0 0 0 0 0 3 1
0 0 1 19 6 2 0 0 0 0 0 0 0 0 2 3 0 0 0 0 4 5
5 5 42 98 84 41 4 0 0 0 0 0 2 0 0 9 5 2 0 0 0 2
5 5 6 91 78 88 7 5 0 12 67 18 4 1 0 0 0 0 0 0 0 0
5 5 5 67 80 13 5 62 69 87 100 94 5 0 1 5 0 0 2 8 1 0
5 5 5 21 72 100 91 98 100 100 100 26 3 0 2 5 5 41 100 100 100 6
62 38 7 62 100 100 100 100 100 100 64 5 5 2 2 5 50 100 95 100 100 36
99 99 65 62 88 96 73 82 100 54 8 5 0 0 5 5 100 100 100 93 51 26
99 100 100 80 94 100 99 83 64 12 5 2 0 0 5 35 100 92 78 100 37 20
100 100 100 87 80 89 99 80 5 5 5 0 3 22 54 100 100 99 100 100 100 100

GFSNIL_prec_cloud_042.txt.gz
Cloud_Cover
0 0 0 0 0 0 0 1 5 5 5 1 0 0 0 0 0 0 0 0 0 0
0 0 0 0 0 0 0 1 5 5 5 5 5 0 0 0 5 5 1 0 1 0
0 0 0 0 0 5 4 5 5 5 5 5 5 4 0 0 5 5 5 4 0 3
0 0 3 5 5 5 5 5 5 5 5 5 5 5 5 0 4 5 5 5 0 2
5 5 5 5 5 58 67 73 99 76 5 36 94 100 65 5 5 5 5 5 3 0
5 6 10 15 63 74 81 93 100 99 99 95 100 100 100 99 5 5 5 5 5 3
35 81 88 83 78 89 89 93 89 100 100 100 100 100 100 98 100 76 5 5 5 5
77 93 90 100 100 100 100 100 100 100 100 100 100 97 100 100 100 100 85 53 5 5
8 72 80 87 100 100 88 100 88 99 100 100 100 100 86 100 100 100 100 64 20 5
100 99 95 100 100 100 100 100 100 100 100 100 100 100 96 100 100 95 100 98 98 59
100 79 100 100 100 100 100 100 100 100 100 100 100 100 93 100 100 100 100 100 94 46
100 100 100 100 100 100 100 100 90 98 100 100 100 100 95 93 90 98 89 100 100 99
100 100 100 100 100 100 97 100 92 100 100 100 100 100 100 100 100 52 67 82 22 5
100 100 100 100 100 100 97 91 87 97 98 100 99 74 100 95 85 68 71 26 10 12

GFSNIL_prec_cloud_045.txt.gz
Cloud_Cover
0 0 0 0 0 0 0 0 0 0 0 0 4 5 5 2 0 3 0 0 0 2
0 0 0 0 0 0 0 0 0 0 5 5 5 5 5 5 5 5 4 5 3 3
0 0 0 0 0 0 2 3 4 5 5 5 57 32 5 5 32 5 5 4 71 48
0 0 0 2 3 5 5 5 5 34 13 45 50 96 9 86 100 100 7 41 55 11
0 2 5 5 5 5 5 5 57 97 99 100 100 99 28 98 79 100 100 7 90 100
5 5 9 40 72 88 92 30 62 62 42 35 94 91 100 95 100 93 58 100 100 100
6 71 70 59 41 89 100 99 100 83 92 74 98 100 100 78 87 100 100 100 97 56
67 7 73 98 100 100 100 100 100 100 90 74 97 98 100 100 100 100 100 98 59 98
12 100 100 100 100 100 100 100 95 100 98 100 100 100 100 100 100 100 67 100 57 100
91 100 100 100 100 100 100 100 100 100 100 100 100 100 100 100 100 100 92 99 100 100
97 100 100 100 100 100 100 100 100 100 100 100 100 100 100 100 100 100 100 100 100 93
100 100 100 100 100 100 100 100 100 100 68 94 66 98 100 100 100 100 100 100 100 100
100 100 100 100 100 100 100 100 100 100 93 73 95 100 95 100 100 100 100 100 100 100
100 100 100 100 100 100 100 100 98 100 94 88 87 73 92 99 100 98 100 99 100 95

GFSNIL_prec_cloud_048.txt.gz
Cloud_Cover
0 0 0 0 0 0 0 0 0 0 0 0 0 0 0 0 3 5 5 5 0 0
0 0 0 0 0 0 0 0 0 0 0 0 0 0 5 5 5 5 5 5 9 5
0 0 0 0 0 0 0 0 0 0 0 4 5 6 84 54 5 5 3 0 42 5
0 0 0 0 0 0 0 0 1 0 0 0 5 7 90 55 24 96 31 5 40 5
0 0 0 0 5 5 5 5 5 5 5 2 4 5 93 100 93 100 58 34 100 28
0 0 0 5 5 5 5 6 6 12 88 98 35 5 5 95 100 100 100 60 95 100
0 0 5 5 5 20 53 60 7 81 89 96 77 5 53 88 100 100 100 100 100 89
4 5 5 5 78 86 100 100 100 100 100 100 100 83 95 100 100 100 100 100 100 100
5 5 24 98 100 100 100 100 100 100 100 100 100 100 98 100 100 100 100 100 100 100
34 89 93 100 100 100 100 100 85 98 100 100 98 80 100 100 100 100 100 100 100 100
66 81 100 100 100 100 100 100 100 100 100 100 100 96 65 95 100 100 100 100 100 100
100 100 100 100 100 100 100 100 100 100 100 100 63 100 54 96 100 100 83 100 100 100
100 100 100 100 100 100 100 100 100 100 100 100 59 5 28 100 99 73 73 99 99 100
100 100 100 100 100 100 100 100 100 100 100 100 69 95 37 58 99 68 94 96 91 86